0 HST 1 20580U 90037B 26178.24823549 .00007152 00000-0 22534-3 0 9999 2 20580 28.4733 11.8084 0001399 264.2756 95.7680 15.30861955790116 0 ISS (ZARYA) 1 25544U 98067A 26178.25148564 .00007401 00000-0 14016-3 0 9996 2 25544 51.6322 250.2737 0004284 237.3448 122.7128 15.49452150573314 0 CXO 1 25867U 99040B 26179.95532601 .00000592 00000-0 00000-0 0 9992 2 25867 56.3077 116.3625 7815439 310.1470 0.3486 0.37796038 17366